Simultaneous Nadir Overpasses (SNOs) Predictions

Prediction of SNOs between AQUA and METOP-A Satellite Orbit:

Table of predicted SNOs for the next 14.0 days since TLE Epoch: 4/6/2019
Index Date (AQUA) Time (AQUA) Lat,Lon (AQUA) SZA (AQUA ) Date (METOP-A) Time (METOP-A) Lat,Lon (METOP-A) SZA (METOP-A ) Distance(km) Time Diff (sec)
1 04/07/2019 02:57:39 74.64, 128.09 68.04 04/07/2019 02:56:30 74.60, 126.13 68.09 57.85 69
2 04/07/2019 03:47:13 -75.06, -65.34 111.53 04/07/2019 03:47:02 -75.07, -65.25 111.52 2.64 11
3 04/07/2019 04:36:41 75.10, 102.20 68.51 04/07/2019 04:37:41 75.10, 102.17 68.50 1.03 60
4 04/09/2019 22:31:52 74.61,-165.38 66.94 04/09/2019 22:30:44 74.53,-167.63 66.98 67.13 68
5 04/09/2019 23:21:27 -75.08, 1.06 112.57 04/09/2019 23:21:15 -75.06, 1.12 112.59 2.58 12
6 04/10/2019 00:10:55 75.11, 168.60 67.46 04/10/2019 00:11:53 75.13, 168.66 67.47 2.71 58
7 04/12/2019 18:06:05 74.53, -98.75 65.80 04/12/2019 18:04:59 74.46,-101.40 65.87 79.33 66
8 04/12/2019 18:55:41 -75.05, 67.57 113.64 04/12/2019 18:55:29 -75.04, 67.49 113.64 2.50 12
9 04/12/2019 19:45:10 75.13,-125.01 66.44 04/12/2019 19:46:07 75.11,-124.99 66.41 2.43 57
10 04/15/2019 13:40:19 74.50, -32.25 64.76 04/15/2019 13:39:13 74.44, -35.05 64.83 83.64 66
11 04/15/2019 14:29:56 -75.08, 133.94 114.63 04/15/2019 14:29:42 -75.08, 133.98 114.63 1.44 14
12 04/15/2019 15:19:24 75.11, -58.51 65.40 04/15/2019 15:20:20 75.14, -58.50 65.41 3.22 56
13 04/18/2019 09:14:31 74.44, 34.35 63.69 04/18/2019 09:13:26 74.42, 31.30 63.81 91.16 65
14 04/18/2019 10:04:09 -75.06,-159.59 115.65 04/18/2019 10:03:55 -75.06,-159.66 115.65 2.21 14
15 04/18/2019 10:53:38 75.14, 7.83 64.43 04/18/2019 10:54:33 75.12, 7.84 64.40 3.31 55




NCC Satellite Simultaneous Nadir Overpasses (SNOs) Prediction Service
